Weather History for Billings, MT

Change the Weather History Date:

Friday, December 13, 2013

  Actual Average Record
Temperature  
Mean Temperature 34 °F 26 °F  
Max Temperature 39 °F 35 °F 60 °F (2014)
Min Temperature 29 °F 18 °F -16 °F (1963)
Degree Days  
Heating Degree Days 31 39  
Month to date heating degree days 686 487  
Since 1 July heating degree days 2287 2115  
Cooling Degree Days 0 0  
Month to date cooling degree days 0 0  
Year to date cooling degree days 840 636  
Moisture  
Dew Point 24 °F    
Average Humidity 65    
Maximum Humidity 75    
Minimum Humidity 54    
Precipitation  
Precipitation T in 0.01 in 0.32 in (1975)
Month to date precipitation 1.41 0.22  
Year to date precipitation 16.13 13.38  
Snow  
Snow T in 0.30 in 4.80 in (2008)
Month to date snowfall 12.5 3.4  
Since 1 July snowfall 23.6 15.1  
Snow Depth 6.00 in    
Sea Level Pressure  
Sea Level Pressure 30.07 in    
Wind  
Wind Speed 13 mph (West)    
Max Wind Speed 23 mph    
Max Gust Speed 28 mph    
Visibility 10 miles    
Events Rain , Snow    
T = Trace of Precipitation, MM = Missing Value Source: NWS Daily Summary

Daily Weather History Graph

Daily Weather History Graph

Search for Another Location

Airport:

Trip Planner

Search our weather history database for the weather conditions in past years. The results will help you decide how hot, cold, wet, or windy it might be!

Date:

Astronomy

Dec. 13, 2013 Rise Set
Actual Time 7:47 AM MST 4:29 PM MST
Civil Twilight 7:12 AM MST 5:04 PM MST
Nautical Twilight 6:35 AM MST 5:41 PM MST
Astronomical Twilight 5:58 AM MST 6:18 PM MST
Moon 2:21 PM MST (12/13) 4:04 AM MST (12/13)
Length of Visible Light 9h 51m
Length of Day
8h 42m
Waxing Gibbous, 88% of the Moon is Illuminated
Dec 13
Waxing Gibbous
Dec 17
Full
Dec 25
Last Quarter
Jan 1
New
Jan 7
First Quarter

Hourly Weather History & Observations

Time (MST) Temp. Windchill Dew Point Humidity Pressure Visibility Wind Dir Wind Speed Gust Speed Precip Events Conditions
12:53 AM 30.0 °F 17.9 °F 19.0 °F 64% 29.95 in 10.0 mi WSW 18.4 mph - N/A   Mostly Cloudy
1:53 AM 30.9 °F 19.1 °F 19.0 °F 61% 29.95 in 10.0 mi WSW 18.4 mph - N/A   Mostly Cloudy
2:53 AM 32.0 °F 20.8 °F 19.0 °F 59% 29.96 in 10.0 mi SW 17.3 mph - N/A   Overcast
3:53 AM 34.0 °F 24.6 °F 19.0 °F 54% 29.95 in 10.0 mi WSW 13.8 mph - N/A   Overcast
4:53 AM 32.0 °F 23.6 °F 19.9 °F 61% 29.98 in 10.0 mi WSW 10.4 mph - N/A   Overcast
5:53 AM 33.1 °F 24.4 °F 19.9 °F 59% 30.00 in 10.0 mi WSW 11.5 mph - N/A   Overcast
6:53 AM 32.0 °F 23.6 °F 21.0 °F 64% 30.01 in 10.0 mi SW 10.4 mph - N/A   Overcast
7:53 AM 33.1 °F 26.1 °F 21.9 °F 64% 30.02 in 10.0 mi West 8.1 mph - N/A   Overcast
8:53 AM 35.1 °F 28.6 °F 24.1 °F 64% 30.04 in 10.0 mi West 8.1 mph - N/A   Overcast
9:53 AM 32.0 °F 23.6 °F 24.1 °F 73% 30.06 in 10.0 mi SW 10.4 mph - N/A   Overcast
10:53 AM 36.0 °F 29.0 °F 28.9 °F 76% 30.08 in 10.0 mi West 9.2 mph - N/A   Overcast
11:38 AM 36.0 °F 28.5 °F 30.0 °F 79% 30.00 in 10.0 mi West 10.4 mph - 0.00 in Rain , Snow Light Rain
11:53 AM 36.0 °F 29.0 °F 30.0 °F 79% 30.08 in 10.0 mi WSW 9.2 mph - 0.00 in Rain , Snow Light Rain
12:01 PM 36.0 °F 28.0 °F 30.0 °F 79% 29.99 in 10.0 mi West 11.5 mph - 0.00 in   Mostly Cloudy
12:53 PM 37.0 °F 28.5 °F 28.9 °F 73% 30.06 in 10.0 mi West 13.8 mph - 0.00 in   Mostly Cloudy
1:53 PM 37.0 °F 28.1 °F 28.0 °F 70% 30.06 in 10.0 mi WNW 15.0 mph - N/A   Mostly Cloudy
2:53 PM 37.9 °F 29.6 °F 27.0 °F 65% 30.07 in 10.0 mi West 13.8 mph - N/A   Scattered Clouds
3:53 PM 39.0 °F 31.4 °F 26.1 °F 60% 30.09 in 10.0 mi WNW 12.7 mph - N/A   Mostly Cloudy
4:53 PM 36.0 °F 27.5 °F 27.0 °F 70% 30.12 in 10.0 mi West 12.7 mph - N/A   Mostly Cloudy
5:53 PM 37.9 °F 30.0 °F 24.1 °F 57% 30.14 in 10.0 mi WNW 12.7 mph - N/A   Scattered Clouds
6:53 PM 37.9 °F 30.0 °F 25.0 °F 60% 30.16 in 10.0 mi West 12.7 mph - N/A   Mostly Cloudy
7:53 PM 37.9 °F 30.5 °F 25.0 °F 60% 30.16 in 10.0 mi West 11.5 mph - N/A   Mostly Cloudy
8:53 PM 37.9 °F 29.2 °F 25.0 °F 60% 30.17 in 10.0 mi West 15.0 mph - N/A   Mostly Cloudy
9:53 PM 39.0 °F 30.3 °F 25.0 °F 57% 30.19 in 10.0 mi WNW 16.1 mph - N/A   Mostly Cloudy
10:53 PM 37.0 °F 27.4 °F 25.0 °F 62% 30.19 in 10.0 mi WNW 17.3 mph - N/A   Scattered Clouds
11:53 PM 35.1 °F 25.5 °F 23.0 °F 61% 30.23 in 10.0 mi WNW 15.0 mph - N/A   Partly Cloudy